EventNavy

Jakarta

124,061 Data

[701]  JamieNow  05/08 09:57  2  0

[702]  BCeabica  05/08 09:56  2  0

[703]  sweet-bonanza_svMn  05/08 09:54  0  0

[704]  Fobertkef-1  05/08 09:53  2  0

[705]  1win_jsPl  05/08 09:53  2  0

[706]  Fobertkef-1  05/08 09:53  2  0

[707]  1win_liPn  05/08 09:52  2  0

[708]  Fobertkef-1  05/08 09:51  2  0

[709]  Kixxbub  05/08 09:48  2  0

[710]  Fobertkef-1  05/08 09:46  0  0

[711]  Fobertkef-1  05/08 09:41  1  0

[712]  Kixxbub  05/08 09:32  0  0

[713]  Fobertkef-1  05/08 09:31  3  0

[714]  порно  05/08 09:29  0  0

[715]  Fobertkef-1  05/08 09:25  0  0

[716]  Fobertkef-1  05/08 09:25  0  0

[717]  1win_qgPl  05/08 09:23  0  0

[718]  1win_gsPn  05/08 09:22  0  0

[719]  sweet-bonanza_wsMn  05/08 09:22  0  0

[720]  Fobertkef-1  05/08 09:20  2  0

[721]  Fobertkef-1  05/08 09:14  0  0

[722]  Fobertkef-1  05/08 09:08  2  0

[723]  Rylonnie shtori s elektroprivodom_ogKa  05/08 09:04  2  0

[724]  Fobertkef-1  05/08 09:04  2  0

[725]  Rylonnie shtori s elektroprivodom_vbKa  05/08 09:02  2  0

[726]  Fobertkef-1  05/08 09:02  2  0

[727]  Fobertkef-1  05/08 08:58  2  0

[728]  Fobertkef-1  05/08 08:52  3  0

[729]  melbet_eySn  05/08 08:51  2  0

[730]  Fobertkef-1  05/08 08:43  0  0

[731]  Fobertkef-1  05/08 08:43  3  0

[732]  Fobertkef-1  05/08 08:40  0  0

[733]  FreddyNap  05/08 08:35  2  0

[734]  melbet_mxSn  05/08 08:33  0  0

[735]  Fobertkef-1  05/08 08:32  0  0

[736]  1win_luPt  05/08 08:31  2  0

[737]  Fobertkef-1  05/08 08:28  2  0

[738]  Fobertkef-1  05/08 08:24  2  0

[739]  Fobertkef-1  05/08 08:19  2  0

[740]  1win_alPl  05/08 08:16  2  0

[741]  FreddyNap  05/08 08:15  0  0

[742]  sweet-bonanza_knMn  05/08 08:15  0  0

[743]  1win_mlPn  05/08 08:15  2  0

[744]  fixchava  05/08 08:13  2  0

[745]  Fobertkef-1  05/08 08:13  2  0

[746]  1win_ylPt  05/08 08:12  2  0

[747]  Fobertkef-1  05/08 08:11  0  0

[748]  Donaldbep  05/08 08:08  0  0

[749]  Fobertkef-1  05/08 08:06  0  0

[750]  BCeabica  05/08 08:03  0  0

[751]  Bmiabica  05/08 08:02  2  0

[752]  mostbet_yepl  05/08 07:59  2  0

[753]  1win_faPl  05/08 07:56  0  0

[754]  Fobertkef-1  05/08 07:56  0  0

[755]  1win_ohPn  05/08 07:55  2  0

[756]  sweet-bonanza_pqMn  05/08 07:55  0  0

[757]  Fobertkef-1  05/08 07:54  2  0

[758]  Fobertkef-1  05/08 07:50  0  0

[759]  Fobertkef-1  05/08 07:45  0  0

[760]  1win_gcPl  05/08 07:44  0  0

[761]  sweet-bonanza_peMn  05/08 07:43  2  0

[762]  1win_mePn  05/08 07:43  2  0

[763]  Kixxbub  05/08 07:41  0  0

[764]  melbet_ooSn  05/08 07:40  0  0

[765]  melbet_owSn  05/08 07:37  2  0

[766]  fixchava  05/08 07:36  0  0

[767]  Fobertkef-1  05/08 07:35  0  0

[768]  Fobertkef-1  05/08 07:35  2  0

[769]  JeffreyNeema  05/08 07:33  0  0

[770]  Bmiabica  05/08 07:32  0  0

[771]  Kixxbub  05/08 07:26  2  0

[772]  Fobertkef-1  05/08 07:26  2  0

[773]  Fobertkef-1  05/08 07:26  0  0

[774]  porn  05/08 07:26  0  0

[775]  mostbet_sbpl  05/08 07:22  0  0

[776]  888starzuzbet_csEi  05/08 07:21  0  0

[777]  Fobertkef-1  05/08 07:15  0  0

[778]  1win_foPt  05/08 07:15  0  0

[779]  melbet_bbSn  05/08 07:15  0  0

[780]  1win_lvPt  05/08 07:12  0  0

[781]  Fobertkef-1  05/08 07:06  0  0

[782]  Dewaynecrync  05/08 07:05  0  0

[783]  Fobertkef-1  05/08 07:04  0  0

[784]  Rylonnie shtori s elektroprivodom_ryKa  05/08 06:58  0  0

[785]  888starzuzbet_zfEi  05/08 06:58  0  0

[786]  888starzuzbet_hioi  05/08 06:57  0  0

[787]  Fobertkef-1  05/08 06:57  0  0

[788]  Fobertkef-1  05/08 06:52  0  0

[789]  1win_nePt  05/08 06:48  0  0

[790]  Fobertkef-1  05/08 06:45  2  0

[791]  Willisrob  05/08 06:44  2  0

[792]  Fobertkef-1  05/08 06:42  2  0

[793]  Rylonnie shtori s elektroprivodom_jzKa  05/08 06:39  0  0

[794]  Fobertkef-1  05/08 06:36  0  0

[795]  888starzuzbet_qqoi  05/08 06:35  0  0

[796]  mostbet_bdpl  05/08 06:34  2  0

[797]  Fobertkef-1  05/08 06:33  2  0

[798]  mostbet_pzpl  05/08 06:32  2  0

[799]  Fobertkef-1  05/08 06:30  2  0

[800]  1win_mjPl  05/08 06:28  2  0

Jakarta
Nama Tempat
Penjelasan